COSMOS 1275 DEB, 13019

Orbit data source: Space-Track

COSMOS 1275 DEB, 13019 is space debris in LEO originally from a launch on Thu, 04 Jun 1981 UTC launched from the Plesetsk Missile And Space Complex (PKMTR). Debris objects in space refer to the collection of defunct objects orbiting the Earth. Examples of debris include non-operational satellites, rocket bodies, and fragments generated from explosions, collisions, or faulty payload assembly.

Loading next visibility...
Identifier
13019, 1981-053ER
Orbit
LEO
Country
Flag of CISCIS
Related business
Manufacturer
Unknown
Mission
Spacecraft
Bus & Motor
Unknown
Mass
Unknown
Launch date (UTC)
1981-06-04 (45 years ago)
Launch vehicle
Unknown
Launch site
Plesetsk Missile And Space Complex (PKMTR)
Object type
Payload
Rocket body
Debris
Shape & HBR
Unknown shape, 0.1 m
Radar Cross Section
Medium (>0.1 m² and <1 m²)

Expand to show TLE details & history
Last TLE update: 2 days ago

TLE from 2 days ago
0 COSMOS 1275 DEB
1 13019U 81053ER  26171.19005750  .00001540  00000-0  97735-3 0  9999
2 13019  82.9394  86.3094 0068470 299.9531 215.4159 14.02167042246819
Epoch: 2026-06-20T04:33Z
TLE epoch observation values (Epoch: 2026-06-20T04:33:40.968Z)
Latitude
24.90672°
Longitude
-73.79925°
Altitude
929.998 km
Speed
7.368 km/s
True Right ascension
17h 32m 07s
True Declination
24° 46' 43"
Sunlit
Object was in full shadow at epoch
Visualization orbit readout
Latitude
Unknown
Longitude
Unknown
Altitude
Unknown
Speed
Unknown
Apparent Right ascension
Unknown
Apparent Declination
Unknown
Sunlit
N/A
Visualization observer readout
Local Sidereal Time
16:05:07
Azimuth
Unknown
Elevation
Unknown
Doppler factor
Unknown
Orbital elements
Apogee altitude
933.132 km
Perigee altitude
833.692 km
Semi-major axis
7,261.549 km
Eccentricity
0.00685
Inclination
82.9394°
RAAN
86.3094°
Arg. of periapsis
299.9531°
True anomaly
214.96437°
Mean anomaly
215.4159°
Eccentric anomaly
215.18982°
Mean motion
3.50751 °/min
Orbital period
102.64 mins
BSTAR
0.00097735
Loading maneuver chart data...
Computing Atmospheric mass density...
Loading historical data...
Loading historical data...
Loading historical data...
Loading historical data...
Loading historical data...
Loading historical data...
Loading historical data...

Documentation

Showing up to 5 results
|